User: anonymous   Login
Location: Unspecified
(0.0000°N, 0.0000°E)
Time: 12:09:01
(UTC+00:00)
Language:

CP3 - Orbit

View from above orbital plane
View from above orbital plane
View from above satellite
View from above satellite

Ground track
Ground track

The orbit data is extracted from the following two-line orbital elements,

1 31129U 07012N   21015.87037437  .00000167  00000-0  45326-4 0  9992
2 31129  98.2231 318.4970 0096294  91.4563 269.7668 14.57006388730009
Epoch (UTC): 15 January 2021 20:53:20
Eccentricity: 0.0096294
inclination: 98.2231°
perigee height: 634 km
apogee height: 771 km
right ascension of ascending node: 318.4970°
argument of perigee: 91.4563°
revolutions per day: 14.57006388
mean anomaly at epoch: 269.7668°
orbit number at epoch: 73000

The dashed part of the orbit path shows where the satellite is in the earth's shadow,  

DLR